STARLINK-33867, 63795

Orbit data source: Space-Track

STARLINK-33867, 63795 is a payload satellite owned by SpaceX/Seattle (US) in LEO that was launched on Fri, 02 May 2025 UTC via an FALCON 9 launch vehicle from the Air Force Eastern Test Range (AFETR). Payload-class satellites include a variety of spacecraft equipped with specific instruments for various scientific and technological missions. These include communications satellites like Starlink; space stations such as the ISS; scientific satellites like the Hubble; Earth observation satellites from companies like Planet Labs, Umbra, and HawkEye 360; GPS; miniature CubeSats for education and research; and military/defense satellites.

Loading next visibility...
Identifier
63795, 2025-091W
Orbit
LEO
Country
Flag of USUS
Related business
Manufacturer
SpaceX/Seattle
Mission
Operational Commercial Communications
Bus & Motor
STARLINK V2MO, Unknown motor
Mass
575 kg wet, ~530 kg dry
Launch date (UTC)
2025-05-02 (1 year ago)
Launch vehicle
FALCON 9
Launch site
Air Force Eastern Test Range (AFETR)
Object type
Payload
Rocket body
Debris
Shape & HBR
Box + 2 Pan, 17.7 m
Radar Cross Section
36.964 m², Large (>1 m²)

Expand to show TLE details & history
Last TLE update: 12 hours ago

TLE from 12 hours ago
0 STARLINK-33867
1 63795U 25091W   26171.36875494  .00026554  00000-0  97093-3 0  9993
2 63795  42.9972 192.8151 0002064 288.0902  71.9724 15.27581418 64601
Epoch: 2026-06-20T08:51Z
TLE epoch observation values (Epoch: 2026-06-20T08:51:00.426Z)
Latitude
-0.00008°
Longitude
151.47886°
Altitude
482.382 km
Speed
7.626 km/s
True Right ascension
12h 51m 15s
True Declination
0° 00' 00"
Sunlit
Object was in daylight at epoch
Visualization orbit readout
Latitude
Unknown
Longitude
Unknown
Altitude
Unknown
Speed
Unknown
Apparent Right ascension
Unknown
Apparent Declination
Unknown
Sunlit
N/A
Visualization observer readout
Local Sidereal Time
07:17:58
Azimuth
Unknown
Elevation
Unknown
Doppler factor
Unknown
Orbital elements
Apogee altitude
486.407 km
Perigee altitude
483.574 km
Semi-major axis
6,863.127 km
Eccentricity
0.00021
Inclination
42.9972°
RAAN
192.8151°
Arg. of periapsis
288.0902°
True anomaly
71.99489°
Mean anomaly
71.9724°
Eccentric anomaly
71.98365°
Mean motion
3.81733 °/min
Orbital period
94.31 mins
BSTAR
0.00097093
Loading maneuver chart data...
Computing Atmospheric mass density...
Loading historical data...
Loading historical data...
Loading historical data...
Loading historical data...
Loading historical data...
Loading historical data...
Loading historical data...

Documentation

Showing up to 5 results
|